記事タイトル:Comet P/2004 F3 (NEAT) 

最新の情報は「更新」や「再読み込み」ボタンを押してリロードしてご覧ください。

書き込み欄へ  ヘルプ
お名前: 佐藤 裕久   
NEATプログラムは、3月28.5日UT、ハワイHaleakalaの1.2-m 反射 + CCD で得た画像から西に
向かって約5″の尾がある彗星を発見した。NEO Confirmation Pageに公表後、他の観測者に
よって8″-30″のコマとp.a.240°-285°におよそ20″-40″の尾がある彗星と確認された。

発見位置は次のとおり、

     2004 UT             R.A. (2000) Decl.       Mag.
     Mar. 28.54336   13 43 27.00   +11 14 04.3   17.1

軌道要素と位置推算表は次のとおり、

Orbital elements:
    P/2004 F3 (NEAT)
T 2005 Jan. 7.465 TT                                    MPC
q   2.87248              (2000.0)            P               Q
n   0.122356       Peri.  176.433       -0.251389       +0.929292
a   4.01840        Node    78.867       -0.894703       -0.116473
e   0.28517        Incl.   16.009       -0.369201       -0.350501
P   8.06
From 67 observations 2004 Mar. 15-29.

Ephemeris:
    P/2004 F3 (NEAT)
Date    TT    R. A. (2000) Decl.     Delta      r     Elong.  Phase   m1
2004 03 26    13 44.99   +11 04.1    2.307    3.239   155.2     7.4  15.9
2004 04 05    13 38.53   +11 39.6    2.261    3.217   159.5     6.3  15.8
2004 04 15    13 31.34   +12 02.3    2.242    3.195   158.2     6.7  15.8
2004 04 25    13 24.12   +12 08.3    2.250    3.174   152.1     8.5  15.8
2004 05 05    13 17.61   +11 55.4    2.283    3.154   143.8    10.9  15.8
2004 05 15    13 12.41   +11 23.9    2.337    3.133   134.8    13.2  15.8
2004 05 25    13 08.93   +10 34.9    2.411    3.114   125.8    15.3  15.8
2004 06 04    13 07.41   +09 30.9    2.499    3.095   117.0    17.0  15.9
2004 06 14    13 07.87   +08 14.6    2.598    3.076   108.6    18.2  16.0
2004 06 24    13 10.27   +06 48.4    2.705    3.058   100.5    19.1  16.0
2004 07 04    13 14.47   +05 14.7    2.817    3.041    92.8    19.5  16.1

(IAUC 8313、MPEC 2004-F82)
[2004年3月31日 23時16分29秒]

この記事への返信をどうぞ。
氏名
E-mail URL



記事一覧に戻る